User: anonymous   Login
Location: Unspecified
(0.0000°N, 0.0000°E)
Time: 20:35:09
(UTC+00:00)
Language:

A-11 Canister half - Orbit

View from above orbital plane
View from above orbital plane
View from above satellite
View from above satellite

Ground track
Ground track

The orbit data is extracted from the following two-line orbital elements,

1    51U 60009C   17200.89889009 -.00000106 +00000-0 -21688-3 0  9999
2    51 047.2144 037.7729 0104295 240.3881 118.6484 12.18264560534438
Epoch (UTC): 19 July 2017 21:34:24
Eccentricity: 0.0104295
inclination: 47.2144°
perigee height: 1517 km
apogee height: 1683 km
right ascension of ascending node: 37.7729°
argument of perigee: 240.3881°
revolutions per day: 12.18264560
mean anomaly at epoch: 118.6484°
orbit number at epoch: 53443

The dashed part of the orbit path shows where the satellite is in the earth's shadow,  

DLR